Simultaneous Nadir Overpasses (SNOs) Predictions

Prediction of SNOs between GOES-16 and NOAA-20 Satellite Orbit:

Table of predicted SNOs for the next 14.0 days since TLE Epoch: 9/9/2023
Index Date Time (GOES-16) GOES-16 Lat,Lon NOAA-20 Lat,Lon Distance(km) Time Diff (sec)
1 09/09/2023 18:33:47 -0.05, -75.22 -0.51, -77.35 241.83 80
2 09/10/2023 18:17:41 -0.05, -75.23 0.50, -72.81 275.27 80
3 09/12/2023 06:39:28 0.04, -75.23 0.71, -78.08 325.52 80
4 09/13/2023 06:18:03 0.04, -75.24 -0.36, -73.56 192.07 80
5 09/14/2023 18:39:58 -0.03, -75.27 -0.81, -78.86 409.00 80
6 09/15/2023 18:23:53 -0.04, -75.28 0.20, -74.33 109.21 80
7 09/17/2023 06:45:39 0.03, -75.29 1.00, -79.59 489.91 80
8 09/18/2023 06:24:14 0.04, -75.31 -0.02, -75.06 28.44 80
9 09/20/2023 18:27:24 -0.03, -75.36 -0.13, -75.83 53.44 80
10 09/21/2023 18:11:18 -0.03, -75.37 0.89, -71.30 464.98 80
